Regional Weather Roundup
Issued by NWS Boston, MA

Current Version | Previous Version | Text Only | Print | Product List | Glossary Off
Versions: 1 2 3 4 5 6 7 8 9 10 11 12 13 14 15 16 17 18 19 20 21 22 23 24 25 26 27 28 29 30 31 32 33 34 35 36 37 38 39 40 41 42 43 44 45 46 47 48 49 50
000 ASUS41 KBOX 211710 RWRBOX REGIONAL WEATHER ROUNDUP NATIONAL WEATHER SERVICE BOSTON/NORTON MA 100 PM EDT FRI SEP 21 2018 NOTE: "FAIR" INDICATES FEW OR NO CLOUDS BELOW 12,000 FEET WITH NO SIGNIFICANT WEATHER AND/OR OBSTRUCTIONS TO VISIBILITY. MAZALL-211800- EASTERN MASSACHUSETTS CITY SKY/WX TMP DP RH WIND PRES REMARKS BOSTON FAIR 71 54 54 S10 30.19F BEVERLY FAIR 68 56 65 SE14G20 30.19F LAWRENCE FAIR 72 53 51 S7 30.20F BEDFORD PTSUNNY 71 54 54 SE10G18 30.17F BLUE HILL NOT AVBL NORWOOD FAIR 72 56 57 S13G21 30.19F MARSHFIELD FAIR 70 55 60 SE13 30.20F PLYMOUTH FAIR 68 51 54 S10 30.22F TAUNTON FAIR 70 53 54 S9 30.21F NEW BEDFORD PTSUNNY 67 57 70 S13 30.21F $$ MAZALL-211800- CAPE COD AND THE ISLANDS CITY SKY/WX TMP DP RH WIND PRES REMARKS FALMOUTH FAIR 66 54 63 S15 30.23F HYANNIS FAIR 66 55 67 S9 30.21F CHATHAM FAIR 66 54 65 S8G17 30.24F PROVINCETOWN FAIR 67 54 63 S12G20 30.22F NANTUCKET FAIR 66 55 67 SE14 30.23F MARTHAS VNYRD FAIR 67 56 67 S15 30.23F $$ MAZALL-211800- CENTRAL AND WESTERN MASSACHUSETTS CITY SKY/WX TMP DP RH WIND PRES REMARKS WORCESTER CLOUDY 63 55 75 S12 30.20F FITCHBURG CLOUDY 65 54 67 S14 30.19F ORANGE CLOUDY 65 57 75 S10G17 30.18F SPRINGFIELD CLOUDY 66 57 71 S10 30.17F WESTFIELD CLOUDY 66 61 84 S8 30.17F NORTH ADAMS CLOUDY 64 60 87 VRB7 30.13F PITTSFIELD CLOUDY 62 58 86 S9 30.14F FOG $$ RIZALL-211800- RHODE ISLAND CITY SKY/WX TMP DP RH WIND PRES REMARKS PROVIDENCE FAIR 68 54 60 S13 30.22F NEWPORT FAIR 66 55 67 S12G20 30.23F BLOCK ISLAND FAIR 67 56 67 S14 30.23F SMITHFIELD CLOUDY 66 56 70 VRB7 30.21F WESTERLY CLOUDY 69 58 67 S8 30.23F $$ CTZALL-211800- CONNECTICUT CITY SKY/WX TMP DP RH WIND PRES REMARKS BRADLEY INTL CLOUDY 68 58 70 S14 30.18F HARTFORD CLOUDY 69 58 67 S14G22 30.18F BRIDGEPORT CLOUDY 71 59 65 S12 30.19F DANBURY CLOUDY 68 60 75 S7 30.19F GROTON PTSUNNY 69 59 70 S12 30.21F NEW HAVEN CLOUDY 71 59 65 S12 30.20F CHESTER CLOUDY 70 59 68 SE12 30.21F MERIDEN CLOUDY 69 58 67 S12 30.19F WILLIMANTIC CLOUDY 66 58 75 S8 30.20F OXFORD CLOUDY 66 60 81 S13 30.20F $$ MEZ002-015-021-024-NHZ003-005-008-011-012-014-VTZ005-008-211800- NORTHERN NEW ENGLAND CITY SKY/WX TMP DP RH WIND PRES REMARKS PORTLAND ME CLOUDY 64 53 67 S14G23 30.20F BANGOR ME CLOUDY 63 47 55 S20G28 30.20F CONCORD NH CLOUDY 63 54 72 S9 30.17F MANCHESTER NH CLOUDY 67 53 61 S10 30.16F NASHUA NH CLOUDY 67 56 67 VRB7 30.18F PORTSMOUTH NH PTSUNNY 67 51 56 SE16 30.17F JAFFREY NH CLOUDY 62 56 80 S12G20 30.18F KEENE NH CLOUDY N/A N/A N/A S14G20 30.15F BURLINGTON VT CLOUDY 66 59 78 S17G35 29.96F MT. WASHINGTON DRZL/FOG 39 39 100 SW29G46 N/A VSB 0 WCI 28 $$ NYZ052-076-211800- EASTERN NEW YORK CITY SKY/WX TMP DP RH WIND PRES REMARKS ALBANY CLOUDY 68 60 75 S18G28 30.08F NEW YORK CITY CLOUDY 72 60 66 S15G22 30.18F $$ ANZALL-211800- MARINE OBSERVATIONS STATION/POSITION TIME TEMP WIND PRES VSBY WAVE AIR SEA DIR/SP/G HT/PER (UTC) (F) (DEG/KT/KT) (MB) (MI) (FT/S) BOSTON BUOY 1650 63 65 140/ 14/ 17 1022.1F 5/11 BUZZARDS BAY 1600 62 140/ 14/ 16 1024.2F NANTUCKET SOUND 1650 63 71 170/ 12/ 16 1023.8F 1/ 5 MASS BAY-STELLWA 1604 63 65 170/ 14/ 16 1021.5F 1 7/8 6/11 ISLE OF SHOALS 1600 62 170/ 18/ 20 1022.9F S OF BLOCK IS 1643 68 N/A 4/11 $$ ......................KEY......................... SKY/WX - SKY CONDITION/PRESENT WEATHER TMP - TEMPERATURE IN FAHRENHEIT DWPT - DEWPOINT IN FAHRENHEIT RH - RELATIVE HUMIDITY IN PERCENT WIND - DIRECTION AND SPEED IN MPH PRES - MEAN SEA LEVEL PRESSURE IN INCHES OF HG WCI - WIND CHILL INDEX VSB - VISIBILITY IN MILES HX - HEAT INDEX TC - TEMPERATURE IN CELSIUS VRB - VARIABLE WIND DIRECTION N/A - NOT AVAILABLE

USA.gov is the U.S. government's official web portal to all federal, state and local government web resources and services.